Volver al catálogo

COSMOS 2251 DEB

ActivoLEO
NORAD 34303·DEBRIS·🇷🇺 Russia

Lanzado Jun 16, 1993 desde Plesetsk Cosmodrome

Loading…

Próximos Pases (próximas 24 horas)

TLE

ActualizadoSource: Space-Track

Época: Sep 14, 2026, 01:27 UTC

1 34303U 93036MZ  26257.06076742  .00003071  00000-0  60941-3 0  9992
2 34303  74.0027 124.8238 0133781 196.5769 315.1900 14.57094987919696

Sigue COSMOS 2251 DEB en tiempo real con AllMySat

Download on the App Store